FALCON 9 DEB (47611 NORAD) Tracking and Keplerian Element Data
This shows tracking and keplerian element data for the satellite.
Feedback or suggestion? Click here.
Element | Value |
Catalog | 47611 |
Name | FALCON 9 DEB |
Epoch Orbit | 401 |
Epoch Day | 60.14142381 |
Epoch Year | 2021 |
RAAN | 356.1887 |
Inclination | 53.0374 |
Eccentricity | 0.0010317 |
Argument of Perigee | 279.3958 |
Mean Anonmoly | 80.5918 |
Mean Motion | 16.32939471 |
Decay Rate | 0.03084942 |
L1 | 1 47611U 21009BR 21060.14142381 .03084942 12167-4 48525-3 0 9992 |
L2 | 2 47611 53.0374 356.1887 0010317 279.3958 80.5918 16.32939471 4017 |
Live tracking and technical data element details for FALCON 9 DEB (NORAD 47611). FALCON 9 DEB can be tracked NOW for your location showing map with azimuth and elevation plus other details from your city location.
Track the satellite on the map from your city or location and see movement details for azimuth, elevation, latitude, longitude, range, height, and movement on the map or in text.
IsCatalogInMostPopularTable: catalog: 47611, numindb: 4
Update: records affected: 1
GetName: 47611 FALCON 9 DEB
Hit Count: updated at: Mon, 01 Mar 2021 16:00:38 GMT